Weather in Dayr az-Zawr

Syria     35°19′44″N   40°08′16″E
temp.,
°C
wind,
m/s
gust,
m/s
humid.,
%
clouds,
%
prec.,
mm/h
press.,
hPa
HPBL,
m
27 october, wed
wed2700:00+21ne45325 0.0 101664
03:00+20ne33375 0.0 101631
06:00+18nne33385 0.0 101621
09:00+22ne34285 0.0 1017257
12:00+27ne33215 0.0 10161109
15:00+28ne43185 0.0 10141722
18:00+25nne33225 0.0 101426
21:00+23nne44264 0.0 101540
28 october, thu
thu2800:00+21nne33283 0.0 101531
03:00+20nne333028 0.0 101532
06:00+18ne233344 0.0 101517
09:00+22ne232785 0.0 1016248
12:00+26n222112 0.0 1015878
15:00+27nnw4419100 0.0 10131304
18:00+24nw33235 0.0 101319
21:00+22nw442817 0.0 101451
28 october, thu
thu2823:00+19nw58416 0.0 1015133
02:00+19nnw474380 0.0 1014132
05:00+19n61044100 0.0 1014180
08:00+22nnw5738100 0.0 1015476
11:00+24nw7635100 0.0 10151016
14:00+23n5437100 0.0 1014730
17:00+19ne5554100 0.2 1015124
20:00+20e2347100 0.3 101562
29 october, fri
fri2923:00+20wsw114618 0.1 101526
02:00+19w225289 0.1 101557
05:00+18nne115395 0.1 101621
08:00+20e22463 0.1 1018343
11:00+24se55350 0.0 10171284
14:00+25se55307 0.0 10161702
17:00+21sse224350 0.2 101621
20:00+21e344583 0.4 101776
30 october, sat
sat3023:00+19ene2253100 0.2 101723
02:00+19ene375465 0.3 1016248
05:00+19e3549100 0.0 1017117
08:00+20e344996 0.1 1018333
11:00+23ese554749 0.3 1017743
14:00+25ese444444 0.3 1015732
17:00+23n11505 0.1 101612
20:00+20se47681 1.2 1017235